HS2LXA-WX Weather Reports


time (UTC)temp
C
wind
direction
speed
KPH
gust
KPH
rain 1hr
cm
rain 24hr
cm
rain mn
cm
humidity
%
barometer
mb
20260505062121 32 112 27.4 62.8 0.00 0.00 0.10 68 1013.1
20260505061048 33 112 8.0 20.9 0.00 0.00 0.10 65 1013.2
20260505060045 33 0 1.6 4.8 0.00 0.00 0.10 67 1013.2
20260505055045 33 0 4.8 12.9 0.00 0.00 0.10 67 1013.1
20260505054045 33 225 11.3 25.7 0.00 0.00 0.10 69 1013.2
20260505051838 32 112 8.0 19.3 0.00 0.00 0.10 69 1013.2
20260505050835 33 0 1.6 4.8 0.00 0.00 0.10 67 1013.2
20260505040415 33 0 12.9 29.0 0.00 0.00 0.10 65 1013.2
20260505035415 33 0 9.7 22.5 0.00 0.00 0.10 65 1013.1
20260505034415 32 0 3.2 8.0 0.00 0.00 0.10 69 1013.1
20260505033415 32 0 17.7 38.6 0.00 0.00 0.10 71 1013.2
20260505032415 32 0 4.8 11.3 0.00 0.00 0.10 73 1013.1
20260505030900 32 112 14.5 33.8 0.00 0.00 0.10 69 1013.2
20260505025859 32 225 0.0 0.0 0.00 0.00 0.10 71 1013.1
20260505024856 32 112 0.0 0.0 0.00 0.00 0.10 73 1013.2
20260505023856 31 112 0.0 0.0 0.00 0.00 0.10 69 1013.2
20260505022856 31 225 4.8 11.3 0.00 0.00 0.10 72 1013.2
20260505021856 31 22 6.4 16.1 0.00 0.00 0.10 76 1013.1
20260505020855 30 112 9.7 20.9 0.00 0.00 0.10 77 1013.1
20260505015855 30 112 0.0 0.0 0.00 0.00 0.10 78 1013.2
20260505014854 30 112 4.8 11.3 0.00 0.00 0.10 77 1013.1
20260505013854 30 112 0.0 0.0 0.00 0.00 0.10 76 1013.2
20260505012854 30 112 0.0 0.0 0.00 0.00 0.10 78 1013.2
20260505011850 30 112 3.2 8.0 0.00 0.00 0.10 77 1013.1
20260505010851 29 112 0.0 1.6 0.00 0.00 0.10 78 1013.1
20260505005218 28 112 0.0 1.6 0.00 0.00 0.10 83 1013.2
20260505003338 29 112 19.3 45.1 0.00 0.00 0.10 77 1013.1
20260505002337 28 112 0.0 0.0 0.00 0.00 0.10 80 1013.2
20260505001338 29 112 1.6 3.2 0.00 0.00 0.10 79 1013.2
20260505000338 28 0 1.6 4.8 0.00 0.00 0.10 79 1013.2
20260504235337 29 0 0.0 0.0 0.00 0.00 0.10 79 1013.1
20260504234337 29 270 14.5 35.4 0.00 0.00 0.10 79 1013.2
20260504233338 29 0 3.2 6.4 0.00 0.00 0.10 76 1013.1
20260504232337 29 225 0.0 0.0 0.00 0.00 0.10 76 1013.2
20260504231337 29 112 0.0 0.0 0.00 0.00 0.10 75 1013.1
20260504230337 29 112 0.0 0.0 0.00 0.00 0.10 75 1013.2
20260504225337 30 112 0.0 0.0 0.00 0.00 0.10 75 1013.2
20260504224337 30 112 0.0 0.0 0.00 0.00 0.10 74 1013.2
20260504223337 30 225 0.0 0.0 0.00 0.00 0.10 75 1013.2
20260504222337 30 90 0.0 0.0 0.00 0.00 0.10 74 1013.2
20260504221336 30 22 0.0 0.0 0.00 0.00 0.10 74 1013.1
20260504220336 30 22 0.0 0.0 0.00 0.00 0.10 75 1013.1
20260504215336 30 0 0.0 0.0 0.00 0.00 0.10 75 1013.1
20260504214335 30 0 0.0 0.0 0.00 0.00 0.10 74 1013.2
20260504213336 30 112 0.0 0.0 0.00 0.00 0.10 74 1013.1
20260504212336 29 225 0.0 0.0 0.00 0.00 0.10 75 1013.2
20260504211336 30 112 0.0 0.0 0.00 0.00 0.10 75 1013.2
20260504210334 29 112 9.7 20.9 0.00 0.00 0.10 76 1013.2
20260504205334 28 0 12.9 30.6 0.00 0.00 0.10 78 1013.2
20260504204334 30 90 4.8 11.3 0.00 0.00 0.10 75 1013.1
20260504203334 29 0 0.0 0.0 0.00 0.00 0.10 76 1013.2
20260504202334 30 270 0.0 0.0 0.00 0.00 0.10 74 1013.1
20260504201334 30 0 4.8 11.3 0.00 0.00 0.10 75 1013.1
20260504200333 30 112 0.0 0.0 0.00 0.00 0.10 74 1013.2
20260504195333 30 225 0.0 0.0 0.00 0.00 0.10 73 1013.1
20260504194334 30 0 19.3 43.5 0.00 0.00 0.10 75 1013.1
20260504193333 30 225 0.0 0.0 0.00 0.00 0.10 73 1013.1
20260504192333 30 202 0.0 0.0 0.00 0.00 0.10 73 1013.1
20260504191034 30 22 4.8 12.9 0.00 0.00 0.10 76 1013.1
20260504190029 30 225 0.0 0.0 0.00 0.00 0.10 73 1013.1
20260504185029 30 225 0.0 0.0 0.00 0.00 0.10 72 1013.2
20260504184029 30 0 3.2 8.0 0.00 0.00 0.10 72 1013.1
20260504181349 30 0 0.0 0.0 0.00 0.00 0.10 71 1013.2
20260504175741 30 112 4.8 11.3 0.05 0.00 0.10 72 1013.1
20260504174742 30 0 0.0 0.0 0.05 0.00 0.10 70 1013.2
20260504173421 30 0 0.0 3.2 0.03 0.00 0.05 70 1013.1
20260504172421 31 22 11.3 24.1 0.03 0.00 0.05 69 1013.1
20260504171421 31 270 0.0 0.0 0.03 0.00 0.05 69 1013.2
20260504170236 31 0 0.0 0.0 0.00 0.00 0.00 68 1013.2
20260504160237 30 225 0.0 1.6 0.03 0.05 1.96 69 1013.2
20260504150159 31 90 0.0 0.0 0.00 0.00 0.00 78 1013.2
20260504141319 31 112 0.0 0.0 0.00 0.00 0.00 77 1013.2
20260504140318 31 22 0.0 0.0 0.00 0.00 0.00 76 1013.1
20260504130553 31 0 0.0 0.0 0.00 0.00 0.00 75 1013.1
20260504081149 35 0 0.0 0.0 0.00 0.00 0.00 60 1013.1
20260504070207 36 67 0.0 0.0 0.00 0.00 0.00 60 1013.1